Total_Precipitation_Accumulation
1.91 2.45 3.50 3.58 3.15 2.74 2.56 2.65 2.69 2.51 2.45 2.41 2.42 2.44 2.51 2.56 2.64 2.63 2.47 2.51 2.55 2.56 2.42 2.16 2.04 1.96 2.00 2.07 2.00 1.84 1.70 1.64 1.82 1.97 2.11 2.25 2.45 2.62 2.77 2.93 2.86 2.23 2.11
1.50 2.11 2.98 3.01 2.65 2.34 2.38 2.36 2.44 2.29 2.23 2.30 2.38 2.32 2.20 2.24 2.36 2.39 2.34 2.45 2.45 2.45 2.25 2.10 1.89 1.72 1.72 1.73 1.77 1.61 1.56 1.82 2.17 2.40 2.71 2.78 2.85 2.85 2.84 2.94 2.98 2.36 2.13
1.28 1.67 2.28 2.44 2.29 2.23 2.21 2.09 2.14 2.09 2.06 2.25 2.35 2.34 2.17 2.11 2.34 2.41 2.39 2.39 2.49 2.40 2.12 1.99 1.74 1.54 1.55 1.57 1.52 1.52 1.62 1.98 2.56 2.98 3.13 2.76 2.41 2.67 2.72 2.83 2.72 2.18 2.02
1.13 1.35 1.69 2.03 2.01 1.96 1.94 1.96 1.97 1.91 1.93 2.07 2.12 2.24 2.24 2.14 2.35 2.53 2.42 2.38 2.52 2.33 2.11 1.89 1.70 1.49 1.40 1.42 1.46 1.56 1.75 2.11 2.56 3.10 2.91 2.45 2.06 2.24 2.37 2.29 2.20 1.98 1.86
1.05 1.16 1.47 1.77 1.77 1.76 1.80 1.96 1.98 1.87 1.86 1.95 2.06 2.19 2.32 2.39 2.41 2.52 2.40 2.41 2.54 2.51 2.24 1.93 1.73 1.52 1.43 1.38 1.37 1.54 1.81 2.21 2.61 2.76 2.25 2.25 2.35 2.24 2.09 2.00 2.02 1.83 1.57
1.05 1.19 1.44 1.66 1.61 1.68 1.72 1.92 1.96 1.97 1.92 1.95 2.09 2.09 2.23 2.48 2.62 2.67 2.51 2.49 2.51 2.42 2.14 1.91 1.68 1.49 1.38 1.34 1.46 1.60 1.92 2.30 2.32 1.90 1.73 1.87 1.78 2.01 1.91 1.88 1.81 1.58 1.31
1.04 1.26 1.35 1.59 1.65 1.79 1.96 2.10 2.06 2.00 1.87 1.89 1.92 1.86 2.02 2.45 2.72 2.79 2.72 2.64 2.54 2.39 2.08 1.85 1.66 1.47 1.37 1.38 1.54 1.61 1.85 2.17 1.92 1.61 1.54 1.70 1.51 1.67 1.81 1.82 1.78 1.52 1.23
1.02 1.26 1.36 1.60 1.71 1.81 1.98 2.29 2.33 2.05 1.91 1.86 1.92 1.85 1.93 2.22 2.58 2.73 2.83 2.85 2.71 2.47 2.07 1.84 1.61 1.43 1.38 1.43 1.58 1.62 1.76 1.75 1.48 1.37 1.34 1.35 1.31 1.45 1.68 1.59 1.55 1.43 1.19
1.12 1.19 1.37 1.58 1.74 1.84 1.93 2.14 2.16 2.11 2.02 2.00 2.07 1.94 2.01 2.26 2.47 2.65 2.92 2.85 2.69 2.49 2.14 1.87 1.63 1.42 1.39 1.42 1.54 1.61 1.74 1.79 1.49 1.46 1.31 1.19 1.14 1.33 1.60 1.46 1.39 1.39 1.27
1.39 1.23 1.29 1.46 1.75 1.83 1.84 2.02 2.18 2.13 2.04 2.08 2.14 2.14 2.41 2.59 2.61 2.65 2.90 2.95 2.74 2.52 2.18 2.04 1.79 1.55 1.51 1.46 1.55 1.73 1.90 1.74 1.51 1.53 1.36 0.98 1.08 1.39 1.67 1.65 1.60 1.60 1.45
1.62 1.55 1.56 1.52 1.56 1.69 1.71 1.93 2.41 2.39 2.28 2.29 2.41 2.65 2.96 3.22 3.18 3.23 3.17 3.25 3.11 2.79 2.60 2.43 2.21 1.89 1.73 1.55 1.75 1.89 1.71 1.66 1.82 1.71 1.39 1.04 1.14 1.64 1.89 1.91 1.83 1.80 1.76
1.76 1.78 1.95 1.78 1.63 1.69 1.69 2.32 3.04 2.86 2.72 2.80 2.93 3.08 3.45 3.62 3.90 3.44 3.73 3.90 3.89 3.67 3.43 3.23 3.08 2.55 1.95 1.61 1.81 1.90 1.65 1.66 1.83 1.58 1.29 1.19 1.32 1.79 2.06 1.96 1.91 1.88 1.85
2.08 1.93 1.86 2.00 2.06 2.07 2.16 2.41 2.75 3.07 3.16 3.21 3.19 3.21 3.48 3.43 3.60 3.62 4.06 4.75 4.71 4.04 3.57 3.65 3.54 2.82 2.45 2.52 2.35 2.08 1.94 1.78 1.84 1.58 1.46 1.47 1.58 1.96 2.23 2.08 2.04 1.97 1.79
2.61 2.60 2.63 2.60 2.61 2.63 2.48 2.37 2.45 2.64 2.74 2.77 2.88 2.93 3.12 3.47 3.64 3.80 4.12 4.16 4.18 3.90 4.03 3.82 3.69 3.26 2.98 2.76 2.55 2.52 2.42 2.18 2.08 2.00 1.98 1.89 1.92 2.15 2.38 2.26 2.13 2.11 2.00
3.09 3.37 3.94 3.90 3.40 3.12 2.86 2.61 2.32 2.51 2.38 2.19 2.35 2.67 2.80 3.02 3.36 3.55 3.41 3.43 3.16 3.27 3.58 3.62 3.19 3.30 3.20 3.14 2.96 2.78 2.75 2.48 2.26 2.18 2.23 2.38 2.28 2.24 2.44 2.51 2.41 2.37 2.36
3.92 3.98 4.21 4.79 4.19 3.57 3.05 2.77 2.55 2.40 2.48 2.30 2.40 2.36 2.62 2.80 2.92 2.99 2.91 3.03 2.87 2.90 3.02 3.00 2.91 3.24 3.30 3.18 2.83 2.57 2.50 2.48 2.39 2.26 2.41 2.49 2.46 2.21 2.31 2.65 2.84 2.82 2.85
4.46 4.63 4.75 5.07 4.80 4.37 3.80 3.22 2.74 2.55 2.40 2.42 2.53 2.33 2.40 2.55 2.61 2.66 2.71 2.70 2.71 2.56 2.55 2.51 2.56 2.84 2.88 2.80 2.61 2.38 2.34 2.36 2.41 2.39 2.33 2.43 2.45 2.44 2.37 2.51 2.77 2.86 3.08
5.11 5.39 5.43 5.18 5.25 4.96 4.38 3.81 3.37 3.11 2.86 2.64 2.46 2.32 2.15 2.22 2.26 2.39 2.31 2.27 2.27 2.18 2.18 2.36 2.41 2.61 2.82 2.88 2.84 2.47 2.46 2.49 2.34 2.44 2.41 2.38 2.69 2.47 2.66 2.78 2.77 2.75 3.14
6.27 6.74 6.53 5.88 5.53 5.13 4.67 4.24 4.07 3.85 3.48 3.07 2.81 2.59 2.42 2.20 2.10 2.17 2.23 2.29 1.99 2.02 2.11 1.99 2.30 2.48 2.77 2.86 2.43 2.41 2.22 2.20 2.22 2.09 2.29 2.21 2.41 2.53 2.73 2.77 2.84 2.75 3.10
6.58 7.33 7.24 6.58 5.79 5.16 4.88 4.57 4.45 4.13 3.70 3.25 3.03 2.87 2.56 2.39 2.14 2.16 2.03 1.95 1.74 1.93 2.24 2.36 2.75 2.70 2.62 2.61 2.15 2.35 2.14 1.86 1.96 2.07 2.05 2.22 2.27 2.09 2.41 2.74 2.94 2.48 2.84
5.61 6.19 6.09 5.49 5.03 4.56 4.14 3.67 3.64 3.50 3.26 3.05 2.82 2.60 2.54 2.41 2.22 2.27 2.07 2.15 1.87 1.91 2.03 2.08 2.36 2.49 2.41 2.41 2.74 2.83 2.37 1.94 1.96 1.92 1.92 2.20 2.23 2.23 2.61 3.02 3.12 3.00 2.61
4.12 4.36 3.86 3.67 3.70 3.42 3.26 3.26 3.20 3.08 2.80 2.61 2.53 2.65 2.33 2.27 2.19 2.04 2.22 2.01 1.92 2.10 2.11 2.17 2.39 2.50 2.41 2.46 2.71 3.08 2.82 2.76 2.38 1.74 1.97 2.11 2.14 2.37 2.46 2.60 2.90 3.21 2.86
2.91 2.90 2.67 2.63 2.96 3.00 3.08 3.14 3.15 3.13 2.97 2.75 2.51 2.55 2.23 2.02 2.01 2.09 2.06 2.09 2.16 1.87 2.10 2.25 2.25 2.43 2.51 2.44 2.45 2.85 2.87 2.87 2.51 1.94 1.83 1.91 2.11 2.41 2.43 2.54 2.39 2.62 2.82
2.01 2.14 2.40 2.50 2.65 2.61 2.78 2.75 2.67 2.45 2.32 2.22 2.17 2.28 2.33 2.11 1.97 1.90 1.97 2.23 2.32 2.03 2.24 1.84 1.95 2.25 2.45 2.38 2.46 2.32 2.26 2.43 2.62 2.49 2.11 1.91 2.01 2.16 2.27 2.31 2.44 2.63 2.78
1.66 1.94 2.30 2.42 2.46 2.39 2.38 2.52 2.71 2.61 2.60 2.46 2.34 2.55 2.55 2.53 2.27 1.94 1.95 2.19 2.37 2.30 2.34 2.15 2.34 2.14 2.05 2.06 2.17 2.25 2.27 2.19 2.05 2.30 2.38 2.23 2.07 1.82 1.82 1.91 2.06 2.20 2.27
1.54 1.70 1.96 2.10 2.29 2.32 2.37 2.50 2.54 2.59 2.74 2.67 2.57 2.44 2.32 2.34 2.29 2.13 2.10 2.36 2.38 2.34 2.42 2.32 2.29 2.13 2.11 2.11 2.04 2.02 2.29 2.28 2.15 2.28 2.12 2.08 2.01 1.60 1.54 1.64 1.74 1.83 1.97